This demonstration page uses our WeatherBlox Daily Observations layout. Learn more.

Left ArrowRight Arrow

38.80484, -77.04692

Hourly Observations for September 23, 2022

Temp ( °F °C ) Dew Point ( °F °C ) Humidity (%) Winds ( mph kmh ) Pressure ( in mb ) Visibility ( mi km ) Precip ( " mm )
12:52 am 00:52 Mostly Cloudy 60 15.6 45 7.2 57 57 NW 12 19 29.95 1014 10 16 0.00 0.00
1:52 am 01:52 Partly Cloudy 59 15 43 6.1 55 55 NNW 14 22 29.96 1014 10 16 0.00 0.00
2:52 am 02:52 Mostly Clear 58 14.4 44 6.7 60 60 NW 14 22 29.96 1014 10 16 0.00 0.00
3:52 am 03:52 Mostly Clear 57 13.9 43 6.1 59 59 NW 13 20 29.96 1015 10 16 0.00 0.00
4:52 am 04:52 Mostly Clear 56 13.3 42 5.6 60 60 NNW 13 20 29.97 1015 10 16 0.00 0.00
5:52 am 05:52 Mostly Clear 55 12.8 42 5.6 62 62 NNW 10 17 30.00 1016 10 16 0.00 0.00
6:52 am 06:52 Mostly Clear 54 12.2 41 5 61 61 NW 9 15 30.02 1017 10 16 0.00 0.00
7:52 am 07:52 Mostly Sunny 55 12.8 40 4.4 57 57 NNW 12 19 30.04 1017 10 16 0.00 0.00
8:52 am 08:52 Mostly Sunny 57 13.9 40 4.4 53 53 NNW 14 22 30.06 1018 10 16 0.00 0.00
9:52 am 09:52 Mostly Sunny 60 15.6 40 4.4 47 47 NNW 14 22 30.07 1018 10 16 0.00 0.00
10:52 am 10:52 Mostly Sunny 63 17.2 39 3.9 41 41 N 15 24 30.08 1019 10 16 0.00 0.00
11:52 am 11:52 Mostly Sunny 65 18.3 39 3.9 38 38 WNW 12 19 30.08 1019 10 16 0.00 0.00
12:52 pm 12:52 Mostly Sunny 65 18.3 38 3.3 37 37 NW 10 17 30.07 1018 10 16 0.00 0.00
1:52 pm 13:52 Sunny 67 19.4 35 1.7 31 31 NW 18 30 30.05 1018 10 16 0.00 0.00
2:52 pm 14:52 Sunny 69 20.6 38 3.3 32 32 NW 15 24 30.03 1017 10 16 0.00 0.00
3:52 pm 15:52 Sunny 70 21.1 37 2.8 30 30 NNW 18 30 30.03 1017 10 16 0.00 0.00
4:52 pm 16:52 Sunny 69 20.6 37 2.8 31 31 NW 17 28 30.03 1017 10 16 0.00 0.00
5:52 pm 17:52 Sunny 68 20 36 2.2 31 31 NW 18 30 30.04 1017 10 16 0.00 0.00
6:52 pm 18:52 Sunny 66 18.9 37 2.8 34 34 NW 15 24 30.05 1018 10 16 0.00 0.00
7:52 pm 19:52 Clear 64 17.8 37 2.8 37 37 NW 14 22 30.06 1018 10 16 0.00 0.00
8:52 pm 20:52 Clear 62 16.7 39 3.9 42 42 NNW 12 19 30.09 1019 10 16 0.00 0.00
9:52 pm 21:52 Partly Cloudy 59 15 41 5 51 51 N 8 13 30.10 1019 10 16 0.00 0.00
10:52 pm 22:52 Partly Cloudy 58 14.4 41 5 53 53 NNW 8 13 30.11 1020 10 16 0.00 0.00
11:52 pm 23:52 Partly Cloudy 58 14.4 41 5 53 53 NNW 7 11 30.12 1020 10 16 0.00 0.00

Powered by AerisWeather